Cesare Costantini

Главный скаут - Padova
13 Фев 2028
Воскресенье
Продолжить

Характер

Адаптивность (13) Амбиции (7) Скандальность (11) Верность (12) Стрессоустойчивость (1) Профессионализм (13) Благородство (20) Темперамент (2)

Профиль

Стиль управления Демократичный
Лицензия Континентальная C
Решительность 6
Управление людьми 5
Мотивация 4
Дисциплина 4
Удовлетворённость
100%
Усталость
0%
Должность Главный скаут
Зарплата 61.7K в нед.
Контракт 14.03.2028

Производительность

Поведение Хорошее
Эффективность тренировок
36%
Развитие игроков
25%
Профилактика травм
25%
Тактическая реализация
55%

Недавние события

Начаты переговоры по контракту только что
Участвовал в селекционном совещании только что
Рекомендовал трансферную цель только что
Рекомендовал трансферную цель только что
Рекомендовал трансферную цель только что
Начаты переговоры по контракту только что
Начаты переговоры по контракту только что
Начаты переговоры по контракту только что

Текущее наблюдение

104
Игрок Клуб Статус Способность Уверенность Наблюдений Последнее наблюдение Последний голос
Mattia Finotto Carrarese Активный 114 / 122 62% 1 07.06.2027 За
Helinho Union Berlin Активный 130 / 130 63% 1 01.06.2027 За
Tamas Kleinheisler St. Pauli Переговоры 114 / 121 66% 1 01.06.2027 За
Giacomo Olzer Pescara Активный 117 / 117 40% 2 30.05.2027 -
Danilo Veiga Lecce Активный 131 / 125 40% 5 29.05.2027 -
Nadir Zortea Bologna Активный 141 / 133 40% 4 28.05.2027 -
Stefano Di Mario Virtus Entella Активный 119 / 121 40% 6 26.05.2027 -
Gabriele Piccinini Pisa Активный 118 / 126 40% 1 25.05.2027 -
Tommaso Berti Cesena Активный 125 / 129 40% 1 24.05.2027 -
Gianluca Frabotta Cesena Активный 130 / 120 40% 2 22.05.2027 -
Santiago Pierotti Lecce Активный 134 / 121 40% 5 21.05.2027 -
Gianluca Busio Venezia Активный 126 / 130 40% 1 18.05.2027 -
Giorgi Kvernadze Frosinone Активный 135 / 120 40% 3 16.05.2027 -
Francesco Amatucci Cittadella Активный 116 / 124 40% 2 10.05.2027 -
Bongani Zungu Ajax Cape Town Активный 140 / 124 40% 5 09.05.2027 -
Stiven Shpendi Empoli Активный 115 / 119 40% 2 28.04.2027 -
Davide Bragantini Mantova Активный 123 / 118 40% 2 27.04.2027 -
Ilyas Ansah Hull City Активный 129 / 131 40% 4 26.04.2027 -
Oswin Appollis Orlando Pirates Активный 133 / 137 40% 3 24.04.2027 -
Gustav Isaksen Lazio Активный 157 / 145 40% 2 20.04.2027 -
Camillo Tavernelli Arezzo Активный 120 / 117 40% 1 20.04.2027 -
Matteo Francesconi Cesena Активный 128 / 136 40% 1 16.04.2027 -
John Yeboah Venezia Активный 131 / 107 40% 4 13.04.2027 -
Bernat Guiu Virtus Entella Активный 124 / 127 40% 4 11.04.2027 -
Mehdi Dorval Catanzaro Активный 137 / 133 40% 3 10.04.2027 -
Niccolò Pierozzi Palermo Активный 131 / 127 40% 3 05.04.2027 -
Hannibal Burnley Активный 125 / 136 40% 1 05.04.2027 -
Andrea Colpani Monza Активный 142 / 129 40% 1 31.03.2027 -
Petar Stanić Ludogorets Активный 139 / 121 40% 1 28.03.2027 -
Lameck Banda Lecce Активный 133 / 128 40% 1 21.03.2027 -
Bradley Zwane SuperSport United Активный 109 / 99 40% 1 11.03.2027 -
Marco Imperiale Catanzaro Активный 122 / 127 40% 1 06.03.2027 -
Yari Verschaeren Sampdoria Активный 131 / 129 40% 1 28.02.2027 -
Thalente Mbatha Orlando Pirates Активный 119 / 118 40% 1 25.02.2027 -
Tommaso Milanese Ascoli Активный 108 / 127 40% 1 22.02.2027 -
Themba Williams Ajax Cape Town Активный 129 / 104 40% 3 20.02.2027 -
Alessandro Sersanti Modena Активный 115 / 115 40% 1 18.02.2027 -
Armstrong Oko-Flex Levski Активный 120 / 126 40% 1 03.02.2027 -
Erick Marcus Ludogorets Активный 129 / 128 40% 1 02.02.2027 -
Ilja Tuseev Chelyabinsk Активный 106 / 101 40% 2 30.12.2026 -
János Uram Vasas Активный 103 / 95 40% 2 29.12.2026 -
Oufa Shobeir MC Alger Активный 128 / 114 40% 1 29.12.2026 -
Richard Ludha MFK Skalica Активный 122 / 119 40% 1 28.12.2026 -
Williams Mabunda Ajax Cape Town Активный 115 / 130 40% 2 27.12.2026 -
Francesco D'Alterio Ternana Активный 114 / 97 40% 3 24.12.2026 -
Filippo Manfrin Arzignano Активный 103 / 98 40% 1 24.12.2026 -
Oscar Hedvall Valerenga Активный 110 / 104 40% 1 23.12.2026 -
Sheikh Sibi Virtus Verona Активный 100 / 99 40% 1 23.12.2026 -
Islam Imamov SKA Khabarovsk Активный 99 / 93 40% 1 22.12.2026 -
Itumeleng Grobler Free State Stars Активный 102 / 84 40% 2 21.12.2026 -
Samuele Perisan Reggiana Активный 116 / 118 40% 2 20.12.2026 -
Volodymyr Makhankov Vorskla Активный 101 / 84 40% 1 19.12.2026 -
Abraham Rodriguez AZAL Активный 94 / 98 40% 1 18.12.2026 -
Riccardo Gagno Vicenza Активный 114 / 113 40% 2 15.12.2026 -
Gianluca Saro Foggia Активный 112 / 100 40% 2 15.12.2026 -
Martin Trnovský Podbrezova Активный 99 / 104 40% 1 14.12.2026 -
Jonathan Klinsmann Cesena Активный 118 / 118 40% 2 12.12.2026 -
Andrii Kozhukhar Veres Активный 88 / 114 40% 1 10.12.2026 -
Cesare Galeotti Trapani Активный 100 / 106 40% 1 02.12.2026 -
Valerio Boffelli Cavese Активный 102 / 114 40% 3 01.12.2026 -
Sergio Barlocco Trento Активный 111 / 106 40% 2 01.12.2026 -
William Rovida Pro Patria Активный 98 / 100 40% 1 30.11.2026 -
Bojan Milosavljević Lokomotiv Plovdiv Активный 100 / 115 40% 1 30.11.2026 -
Jan Bačkovský Dukla Prague Активный 93 / 101 40% 1 27.11.2026 -
Sławomir Abramowicz Jagiellonia Активный 109 / 132 40% 2 26.11.2026 -
Sipho Chaine Orlando Pirates Активный 120 / 120 40% 3 25.11.2026 -
Josep Martínez Inter Активный 130 / 146 40% 2 24.11.2026 -
Anton Zhylkin Karpaty Активный 92 / 100 40% 1 24.11.2026 -
Ricardo Velho Aris Thessaloniki Активный 115 / 119 40% 1 20.11.2026 -
Luke Southwood Bristol Rovers Активный 96 / 98 40% 1 19.11.2026 -
Mads Hedenstad AGF Активный 115 / 104 40% 1 17.11.2026 -
Brian Bwire Polokwane City Активный 99 / 93 40% 2 16.11.2026 -
Evgeny Staver Rubin Активный 103 / 96 40% 1 16.11.2026 -
Luca Gemello Perugia Активный 108 / 110 40% 1 14.11.2026 -
Andrea Zaccagno Torres Активный 110 / 111 40% 1 14.11.2026 -
Robby McCrorie NK Varazdin Активный 108 / 121 40% 2 08.11.2026 -
Bernard Asante WAFA Активный 97 / 111 40% 1 08.11.2026 -
Tim Rönning Halmstad Активный 99 / 112 40% 1 05.11.2026 -
Fran Vieites Walsall Активный 118 / 126 40% 1 18.10.2026 -
Luciano Jachfe Nueva Chicago Активный 123 / 103 40% 1 16.10.2026 -
Nathan Trott Cardiff City Активный 113 / 127 40% 2 15.10.2026 -
Marcus Bundgaard SonderjyskE Активный 108 / 112 40% 1 15.10.2026 -
Lautaro Petruchi Gimnasia y Esgrima Активный 117 / 118 40% 1 12.10.2026 -
Ivan Pakholiuk Kolos Активный 113 / 107 40% 1 11.10.2026 -
Aynsley Pears Blackburn Rovers Активный 121 / 124 40% 1 11.10.2026 -
Justin Hammel Grasshopper Активный 119 / 112 40% 1 10.10.2026 -
Drake Callender Minnesota United FC Активный 114 / 114 40% 2 09.10.2026 -
Esteban Glellel Quilmes Активный 102 / 107 40% 1 08.10.2026 -
Oliver Christensen Fiorentina Активный 123 / 118 40% 1 06.10.2026 -
Anthony Patterson Wrexham Активный 120 / 138 40% 1 06.10.2026 -
Nahuel Pezzini Arsenal Активный 120 / 100 40% 1 05.10.2026 -
Federico Ravaglia Bologna Активный 130 / 144 40% 1 02.10.2026 -
Alex Bass Peterborough United Активный 111 / 110 40% 1 01.10.2026 -
Nicolás Sumavil Platense Активный 131 / 131 40% 1 29.09.2026 -
Sebastian Breza CF Montreal Активный 106 / 107 40% 1 28.09.2026 -
Marko Ilić KV Kortrijk Активный 115 / 115 40% 1 27.09.2026 -
Francisco Salerno Defensores Unidos Активный 120 / 103 40% 1 27.09.2026 -
Ľubomír Belko Viking Активный 119 / 123 40% 1 25.09.2026 -
Federico Losas Chacarita Juniors Активный 104 / 102 40% 1 22.09.2026 -
Arijanet Murić Sassuolo Активный 137 / 148 40% 1 20.09.2026 -
Mauro Silveira Junior Активный 114 / 120 40% 1 20.09.2026 -
Bailey Peacock-Farrell Blackpool Активный 105 / 96 40% 1 10.09.2026 -
Dayne St. Clair Inter Miami CF Активный 138 / 113 40% 1 09.09.2026 -
Daniele Sommariva Gillingham Активный 111 / 89 40% 1 07.09.2026 -